Home > Weather > Halton Hills > Past weeks

Flag for Canada Weather for the Past 2 Weeks in Halton Hills, Ontario, Canada

Now
10 °F

Passing clouds.


Feels Like: 2 °F
Forecast: -10 / 11 °F
Wind: 5 mph from East

Location: Toronto Pearson International Airport

Current Time: Feb 14, 2016 at 2:29:15 PM

Latest Report: Feb 14, 2016 at 2:00 PM


Visibility: 15 mi

Pressure: 30.50 "Hg

Humidity: 56%

Dew point: -2 °F

Location of Halton HillsLocation

Historic Weather in Halton Hills — Graph

°F

Halton Hills Temperature Yesterday

Maximum temperature yesterday: 7 °F (at 12:00 AM)
Minimum temperature yesterday: -15 °F (at 7:00 AM)
Average temperature yesterday: -5 °F

High & Low Weather Summary for the Past Weeks

 TemperatureHumidityPressure
High61 °F (Feb 3, 2:00 PM)100% (Feb 3, 7:00 AM)30.59 "Hg (Feb 3, 7:00 AM)
Low-15 °F (Feb 13, 7:00 AM)39% (Feb 3, 4:00 PM)29.44 "Hg (Jan 31, 11:00 PM)
Average28 °F69%29.95 "Hg
* Reported Jan 30 1:00 PM — Feb 14 1:00 PM, Halton Hills, Weather by CustomWeather, © 2016

Note: Actual official high and low records may vary slightly from our data, if they occured in-between our weather recording intervals... More about our weather records

Advertising

Halton Hills Weather History for the Previous 24 Hours

 ConditionsComfort  
Time TempWeatherWind HumidityBarometerVisibility
1:00 PM
Sun, Feb 14
7 °FPassing clouds.5 mph66%30.53 "Hg15 mi
12:00 PM5 °FPassing clouds.5 mph60%30.56 "Hg15 mi
11:00 AM1 °FPassing clouds.2 mph55%30.58 "Hg15 mi
10:00 AM-4 °FPassing clouds.2 mph49%30.58 "Hg15 mi
9:00 AM-8 °FSunny.No wind53%30.59 "Hg15 mi
8:00 AM-9 °FSunny.3 mph58%30.59 "Hg15 mi
7:00 AM-11 °FClear.6 mph58%30.59 "Hg15 mi
6:00 AM-11 °FClear.7 mph58%30.58 "Hg15 mi
5:00 AM-9 °FClear.7 mph53%30.58 "Hg15 mi
4:00 AM-9 °FClear.5 mph53%30.57 "Hg15 mi
3:00 AM-9 °FClear.5 mph53%30.57 "Hg15 mi
2:00 AM-11 °FClear.5 mph58%30.57 "Hg15 mi
1:00 AM-9 °FClear.6 mph53%30.54 "Hg15 mi
12:00 AM-9 °FClear.7 mph53%30.54 "Hg15 mi
11:00 PM
Sat, Feb 13
-9 °FClear.13 mph53%30.53 "Hg15 mi
10:00 PM-8 °FClear.12 mph53%30.51 "Hg15 mi
9:00 PM-6 °FClear.14 mph59%30.50 "Hg15 mi
8:00 PM-6 °FClear.12 mph64%30.48 "Hg15 mi
7:00 PM-4 °FPassing clouds.15 mph59%30.46 "Hg15 mi
6:00 PM0 °FPassing clouds.14 mph45%30.42 "Hg15 mi
5:00 PM1 °FPassing clouds.25 mph42%30.39 "Hg15 mi
4:00 PM1 °FPassing clouds.14 mph42%30.39 "Hg15 mi
3:00 PM1 °FPassing clouds.15 mph46%30.37 "Hg15 mi
2:00 PM0 °FPassing clouds.3 mph50%30.37 "Hg15 mi
Weather by CustomWeather, © 2016

See weather overviewHow to use our weather pages